Starlink 11440

operational
NORAD ID: 62513 Int'l Des: 2025-004 Owner: SPXS Country: US Constellation: starlink
LEOCIRCULAR

Über Starlink 11440

Beschreibung wird geladen...

Live-Position

3D-Globus wird geladen...

Nächste Überflüge

Höhenverlauf

Altitude vs Time

uPlot chart will show altitude changes over time

Zweizeiliger Elementsatz

1 62513U 25004C 25352.98559979 .00092005 00000-0 71264-3 0 9995
2 62513 42.9990 197.3885 0002019 249.5195 110.5456 15.70837903 54510
Epoch: 18. Dez. 2025 • Age: 20 hours

Aktueller Status

Höhe 360.3 km
Geschwindigkeit 7.70 km/s
Subsatellitenpunkt 42.70°N, 94.72°W
Startdatum 8. Jan. 2025
Alter 0.9 years
Typ internet

Technische Details

Klassifizierung Payload
Masse 960.00 kg
Trockenmasse 910.00 kg
Gesamtmasse 960.00 kg
Länge 0.30 m
Durchmesser 4.10 m
Spannweite 29.00 m
Form Box + pan
Hersteller SPXS
Bus-Typ Starlink V2MD
Phasenstatus In Orbit
Besitzer/Staat SPXS/US

Große Konstellationen

Loading constellations...